Search the data

BODC Cruise Metadata Report for RV Johan Hjort (58J3) cruise JH07/00

Introduction

This report collates information from the BODC cruise inventory and oceanographic databases. It presents

Cruise Inventory Information

Long name RV Johan Hjort (58J3) cruise JH07/00
Short name JH07/00
Objectives and Narrative
Ship RV Johan Hjort
Departure Port
Departure Date 2000-05-27
Arrival Port
Arrival Date 2000-06-19
Principal Scientist(s)
Responsible Organisation Institute of Marine Research, Norway
Associated Project(s)
IHB Sea Areas Visited Barents Sea, Greenland Sea, Norwegian Sea
Marsden Squares Visited 217;3/251;3/252;2/252;3/252;4/253;1/253;2/254;1/286;3/286;4/287;1/287;2/287;3/287;4/288;1/288;2/288;4
Work Area Description
Work Area Bounding Polygon 60N,15W; 80N,15W; 80N,30E; 60N,30E; 60N,15W
Southern Limit 60N
Northern Limit 80N
Western Limit 15W
Eastern Limit 30E

Cruise Inventory Datasets

Physical oceanography  
CTD stations Quantity: number of stations = 120
Description:  

Cruise Inventory Mooring/Buoy Operations

No information on datasets is currently available

Summary of BODC Data Holdings for the Cruise

National Oceanographic Database

Summary

# Series Instrument Description Parameters
50 CTD/STD cast Electrical conductivity of the water column
Salinity of the water column
Temperature of the water column
Vertical spatial coordinates

Note: Parameter terms are taken from the BODC Parameter Discovery Vocabulary XML (SKOS)

Full List

BODC Reference Instrument Description Date/Time Location  
586527 CTD/STD cast 2000-05-27 21:24Z 68° 24' N, 14° 4' E Click for more
586539 CTD/STD cast 2000-05-27 21:45Z 68° 25' N, 14° 1' E Click for more
586540 CTD/STD cast 2000-05-27 22:30Z 68° 28' N, 13° 52' E Click for more
586552 CTD/STD cast 2000-05-27 23:01Z 68° 30' N, 13° 46' E Click for more
586564 CTD/STD cast 2000-05-27 23:41Z 68° 32' N, 13° 40' E Click for more
586576 CTD/STD cast 2000-05-28 00:09Z 68° 34' N, 13° 34' E Click for more
586588 CTD/STD cast 2000-05-28 00:50Z 68° 37' N, 13° 28' E Click for more
586607 CTD/STD cast 2000-05-28 01:53Z 68° 43' N, 13° 10' E Click for more
586619 CTD/STD cast 2000-05-28 02:39Z 68° 46' N, 12° 58' E Click for more
586620 CTD/STD cast 2000-05-28 03:19Z 68° 51' N, 12° 48' E Click for more
586632 CTD/STD cast 2000-05-28 04:33Z 68° 54' N, 12° 38' E Click for more
586644 CTD/STD cast 2000-05-28 06:24Z 69° 2' N, 12° 17' E Click for more
586656 CTD/STD cast 2000-05-28 12:03Z 69° 7' N, 11° 57' E Click for more
586668 CTD/STD cast 2000-05-28 14:25Z 69° 13' N, 11° 37' E Click for more
586681 CTD/STD cast 2000-05-28 18:06Z 69° 28' N, 10° 56' E Click for more
586693 CTD/STD cast 2000-05-29 02:13Z 69° 42' N, 10° 12' E Click for more
586700 CTD/STD cast 2000-05-29 04:16Z 69° 57' N, 9° 34' E Click for more
586712 CTD/STD cast 2000-05-29 10:38Z 70° 10' N, 8° 52' E Click for more
586724 CTD/STD cast 2000-05-29 14:25Z 70° 24' N, 8° 12' E Click for more
586736 CTD/STD cast 2000-05-29 20:05Z 70° 45' N, 7° 4' E Click for more
586748 CTD/STD cast 2000-05-30 01:09Z 71° 4' N, 6° 0' E Click for more
586761 CTD/STD cast 2000-05-30 05:47Z 71° 25' N, 4° 54' E Click for more
586773 CTD/STD cast 2000-05-30 11:18Z 71° 45' N, 3° 50' E Click for more
586785 CTD/STD cast 2000-05-30 16:00Z 72° 4' N, 2° 45' E Click for more
586797 CTD/STD cast 2000-05-30 20:38Z 72° 25' N, 1° 39' E Click for more
586804 CTD/STD cast 2000-05-31 02:06Z 72° 45' N, 0° 34' E Click for more
586816 CTD/STD cast 2000-05-31 06:31Z 73° 4' N, 0° 30' W Click for more
586828 CTD/STD cast 2000-05-31 11:56Z 73° 25' N, 1° 34' W Click for more
586841 CTD/STD cast 2000-05-31 16:32Z 73° 45' N, 2° 40' W Click for more
586853 CTD/STD cast 2000-05-31 21:58Z 74° 4' N, 3° 40' W Click for more
586865 CTD/STD cast 2000-06-10 20:37Z 74° 15' N, 19° 10' E Click for more
586877 CTD/STD cast 2000-06-10 21:11Z 74° 10' N, 19° 11' E Click for more
586889 CTD/STD cast 2000-06-10 22:11Z 74° 0' N, 19° 13' E Click for more
586890 CTD/STD cast 2000-06-10 23:26Z 73° 49' N, 19° 16' E Click for more
586908 CTD/STD cast 2000-06-11 00:31Z 73° 40' N, 19° 18' E Click for more
586921 CTD/STD cast 2000-06-11 01:40Z 73° 30' N, 19° 19' E Click for more
586933 CTD/STD cast 2000-06-11 03:57Z 73° 15' N, 19° 24' E Click for more
586945 CTD/STD cast 2000-06-11 05:42Z 73° 0' N, 19° 28' E Click for more
586957 CTD/STD cast 2000-06-11 08:02Z 72° 45' N, 19° 31' E Click for more
586969 CTD/STD cast 2000-06-11 09:43Z 72° 30' N, 19° 34' E Click for more
586970 CTD/STD cast 2000-06-11 11:57Z 72° 15' N, 19° 37' E Click for more
586982 CTD/STD cast 2000-06-11 13:49Z 72° 0' N, 19° 40' E Click for more
586994 CTD/STD cast 2000-06-11 15:59Z 71° 45' N, 19° 43' E Click for more
587008 CTD/STD cast 2000-06-11 17:36Z 71° 30' N, 19° 48' E Click for more
587021 CTD/STD cast 2000-06-11 19:32Z 71° 19' N, 19° 49' E Click for more
587033 CTD/STD cast 2000-06-11 20:40Z 71° 10' N, 19° 52' E Click for more
587045 CTD/STD cast 2000-06-11 21:51Z 71° 0' N, 19° 54' E Click for more
587057 CTD/STD cast 2000-06-11 23:23Z 70° 49' N, 19° 56' E Click for more
587069 CTD/STD cast 2000-06-12 00:31Z 70° 40' N, 19° 58' E Click for more
587070 CTD/STD cast 2000-06-12 01:36Z 70° 30' N, 20° 0' E Click for more

Project Database

No data currently held for this cruise in the BODC Project Database

References

Track Charts

No track charts currently available

Reports

No reports currently available